This is the latest recevied weather packets stored in our database for station/object VR2MW-X. If no packets are shown the sender has not sent any weather packets the latest 1 day(s).
| Time | Temp. | Humidity | Pressure | Rain* | Wind** | Luminosity | Snow |
|---|---|---|---|---|---|---|---|
| 1778034929 | 25° C | 79% | 1013.3 hPa | - | - | - | - |
| 1778034318 | 23.89° C | 79% | 1013.3 hPa | - | - | - | - |
| 1778033708 | 23.89° C | 79% | 1013.5 hPa | - | - | - | - |
| 1778033097 | 23.89° C | 78% | 1013.6 hPa | - | - | - | - |
| 1778031876 | 23.89° C | 79% | 1013.6 hPa | - | - | - | - |
| 1778031266 | 23.89° C | 82% | 1013.7 hPa | - | - | - | - |
| 1778030656 | 23.89° C | 82% | 1013.8 hPa | - | - | - | - |
| 1778030045 | 23.89° C | 81% | 1014 hPa | - | - | - | - |
| 1778029434 | 22.78° C | 82% | 1014 hPa | - | - | - | - |
| 1778028823 | 22.78° C | 83% | 1013.8 hPa | - | - | - | - |
| 1778028212 | 22.78° C | 82% | 1013.8 hPa | - | - | - | - |
| 1778027602 | 22.78° C | 82% | 1013.6 hPa | - | - | - | - |
| 1778026992 | 23.89° C | 81% | 1013.6 hPa | - | - | - | - |
| 1778026381 | 22.78° C | 81% | 1013.7 hPa | - | - | - | - |
| 1778025771 | 22.78° C | 84% | 1013.6 hPa | - | - | - | - |
| 1778025160 | 22.78° C | 83% | 1013.6 hPa | - | - | - | - |
| 1778024550 | 22.22° C | 85% | 1013.5 hPa | - | - | - | - |
| 1778023940 | 22.22° C | 87% | 1013.7 hPa | - | - | - | - |
| 1778023329 | 22.22° C | 85% | 1013.6 hPa | - | - | - | - |
| 1778022107 | 22.22° C | 86% | 1013.3 hPa | - | - | - | - |
| 1778021497 | 22.22° C | 86% | 1013.2 hPa | - | - | - | - |
| 1778020275 | 21.11° C | 88% | 1013.1 hPa | - | - | - | - |
| 1778019664 | 21.11° C | 92% | 1012.8 hPa | - | - | - | - |
| 1778019054 | 21.11° C | 89% | 1012.7 hPa | - | - | - | - |
| 1778018443 | 21.11° C | 91% | 1012.6 hPa | - | - | - | - |
* Rain since midnight (hover to see other rain measurements)
** Current wind speed in m/s (hover to see current wind gust speed)